Regional Weather Roundup
Issued by NWS

Home | Current Version | Previous Version | Graphics & Text | Print | Product List | Glossary On
Versions: 1 2 3 4 5 6 7 8 9 10 11 12 13 14 15 16 17 18 19 20 21 22 23 24 25 26 27 28 29 30 31 32 33 34 35 36 37 38 39 40 41 42 43 44 45 46 47 48 49 50
000
ASUS43 KDTX 191010
RWRMI
MICHIGAN HOURLY REGIONAL WEATHER ROUNDUP
NATIONAL WEATHER SERVICE DETROIT/PONTIAC MI
500 AM EST FRI JAN 19 2018

NOTE: "FAIR" INDICATES FEW OR NO CLOUDS BELOW 12,000 FEET WITH NO
SIGNIFICANT WEATHER AND/OR OBSTRUCTION TO VISIBILITY.

MIZ047>049-052>055-059>063-066>070-074>076-081>083-191100-
SOUTHEAST LOWER MICHIGAN

CITY           SKY/WX    TMP DP  RH WIND       PRES   REMARKS
ADRIAN         FAIR      23  13  65 W9        29.98R WCI  13
ALMA           FAIR      25  22  90 S8        29.86F WCI  16
ANN ARBOR      FAIR      19  13  77 S6        29.95R WCI  11
BAD AXE        FAIR      24  18  80 SW7       29.87S WCI  15
CARO           FAIR      21  16  82 S7        29.88S WCI  12
DETROIT CITY   FAIR      23  15  71 SW10      29.96R WCI  12
DETROIT        FAIR      22  14  71 SW12      29.98R WCI  10
FLINT          FAIR      24  15  68 SW8       29.90F WCI  15
GROSSE ILE     FAIR      24  15  67 W10       29.98R WCI  14
HILLSDALE      FAIR      27  16  63 SW12G17   29.94R WCI  16
HOWELL         FAIR      25  17  74 SW7       29.90F WCI  17

CITY           SKY/WX    TMP DP  RH WIND       PRES   REMARKS
JACKSON        FAIR      25  15  66 SW15      29.93R WCI  13
LAMBERTVILLE   FAIR      24  14  64 SW10G18   29.99R WCI  14
LANSING        FAIR      26  17  68 SW14      29.91F WCI  14
LAPEER         FAIR      24  17  72 SW7       29.90F WCI  16
MASON          FAIR      27  15  61 SW10      29.91F WCI  17
MONROE         FAIR      23  13  65 SW12      29.99R WCI  12
MT. CLEMENS    FAIR     N/A N/A N/A S7          N/A
PONTIAC        FAIR      25  16  68 SW9       29.91R WCI  15
PORT HOPE        N/A     25  18  74 SW9       29.84F WCI  15
PORT HURON     FAIR      19  14  79 S7        29.94F WCI  10
TRI CITIES     FAIR      23  20  88 S8        29.86F WCI  14
MIDLAND        FAIR      22  20  92 S6        29.85F WCI  14
TROY           FAIR      22  15  74 S7        29.96S WCI  14
SAGINAW HB     FAIR      23  19  86 S8        29.88S WCI  14
$$
MIZ043>046-050>051-056>058-064>065-071>073-077>080-191100-
SOUTHWEST LOWER MICHIGAN

CITY           SKY/WX    TMP DP  RH WIND       PRES   REMARKS
BATTLE CREEK   FAIR      22  15  75 SW10      29.92F WCI  11
BENTON HARBOR  FAIR      25  16  68 S7        29.94F WCI  17
BIG RAPIDS     FAIR      29  22  76 SW9       29.81F WCI  20
COLDWATER      FAIR      24  16  70 SW13G20   29.96S WCI  12
FREMONT        FAIR      29  20  70 SW9       29.84F WCI  20
HOLLAND        FAIR      32  25  75 SW18      29.91S WCI  20
GRAND RAPIDS   FAIR      25  18  74 SW10      29.89F WCI  15
IONIA          FAIR      26  19  74 SW12      29.88S WCI  15
KALAMAZOO      FAIR      26  16  65 SW10      29.93F WCI  16
LUDINGTON      FAIR      31  26  79 SW12      29.81S WCI  22
MARSHALL       FAIR      23  15  70 SW12      29.93F WCI  12
MOUNT PLEASANT FAIR      31  23  72 SW9       29.83F WCI  23
MUSKEGON       FAIR      34  24  67 SW15      29.88S WCI  24
SOUTH HAVEN    FAIR      31  22  68 SW14G24   29.93S WCI  21
$$
MIZ016>042-191100-
NORTHERN LOWER MICHIGAN

CITY           SKY/WX    TMP DP  RH WIND       PRES   REMARKS
ALPENA         FAIR      28  24  85 SW7       29.79R WCI  21
BEAVER ISLAND  FAIR      32  28  83 SW10      29.74R WCI  24
BELLAIRE       FAIR      27  25  93 S3        29.77F
CADILLAC       FAIR      23  22  96 SW7       29.76S WCI  14
CHARLEVOIX     FAIR      30  26  88 S6        29.78R WCI  24
FRANKFORT      FAIR      33  27  76 SW9       29.78S WCI  26
GAYLORD        FAIR      24  23  96 SW8       29.73  WCI  15
GRAYLING       FAIR      24  21  88 SW7       29.76F WCI  16
HARBOR SPRINGS FAIR      28  26  91 SW3       29.74S
HOUGHTON LAKE  FAIR      23  20  88 S8        29.78F WCI  14
MANISTEE       FAIR      27  23  85 SW5       29.80F WCI  22
OSCODA         FAIR      23  19  83 SW8       29.82S WCI  14
PELLSTON       MOCLDY    31  26  82 SW5       29.75R WCI  26
ROGERS CITY    FAIR      30  25  81 SW7       29.77S WCI  23
TRAVERSE CITY  FAIR      27  22  81 VRB3      29.76F
$$
MIZ007>008-015-191100-
EASTERN UPPER MICHIGAN

CITY           SKY/WX    TMP DP  RH WIND       PRES   REMARKS
MACKINAC ISLAN CLOUDY    32  28  86 SW6       29.73R WCI  26
NEWBERRY       FAIR      28  26  94 S7        29.68F WCI  20
S. S. MARIE    CLOUDY    32  25  75 CALM      29.70S
MUNISING         N/A     28  25  88 S8        29.67F WCI  20
$$
MIZ004>006-011>014-085-191100-
CENTRAL UPPER MICHIGAN

CITY           SKY/WX    TMP DP  RH WIND       PRES   REMARKS
MANISTIQUE     FAIR      26  24  93 CALM      29.70F
ESCANABA       FAIR      19  16  88 S3        29.71F
MENOMINEE      FAIR      24  19  81 SW5       29.75S WCI  18
SAWYER-GWINN   FAIR      24  20  86 S7        29.65F WCI  16
$$
MIZ001>003-009>011-084-191100-
WESTERN UPPER MICHIGAN

CITY           SKY/WX    TMP DP  RH WIND       PRES   REMARKS
IRON MOUNTAIN  FAIR      16  13  88 CALM      29.66F
HOUGHTON       FAIR      26  21  81 SW6       29.59F WCI  19
COPPER HARBOR    N/A     30  24  78 SW5       29.60F WCI  25
IRONWOOD       FAIR      24  22  91 CALM      29.61F
$$

ABBREVIATIONS USED IN REMARKS
   TC - TEMPERATURE IN CELSIUS
  WCI - WIND CHILL INDEX
   HX - HEAT INDEX
  VSB - VISIBILITY





USA.gov is the U.S. government's official web portal to all federal, state and local government web resources and services.